Regional Weather Roundup
Issued by NWS

Home | Current Version | Previous Version | Graphics & Text | Print | Product List | Glossary On
Versions: 1 2 3 4 5 6 7 8 9 10 11 12 13 14 15 16 17 18 19 20 21 22 23 24 25 26 27 28 29 30 31 32 33 34 35 36 37 38 39 40 41 42 43 44 45 46 47 48 49 50
000
ASUS45 KPSR 311310
RWRAZ

ARIZONA HOURLY REGIONAL WEATHER ROUNDUP
NATIONAL WEATHER SERVICE PHOENIX AZ
600 AM MST FRI JUL 31 2015

NOTE: FAIR INDICATES FEW OR NO CLOUDS BELOW 12,000 FEET WITH NO
SIGNIFICANT WEATHER AND/OR OBSTRUCTIONS TO VISIBILITY.

AZZ001>003-036-311400-
NORTHWEST ARIZONA

CITY           SKY/WX    TMP DP  RH WIND       PRES   REMARKS
BULLHEAD CITY  CLEAR     81  64  57 CALM      29.95R
KINGMAN        PTCLDY    73  55  53 S9        30.12R
$$

AZZ004>008-015-016-018-311400-
NORTH CENTRAL ARIZONA

CITY           SKY/WX    TMP DP  RH WIND       PRES   REMARKS
GRAND CANYON   CLOUDY    60  50  69 CALM      30.40R
WILLIAMS       MOCLDY    59  52  77 S7        30.45S
PRESCOTT       PTCLDY    64  55  72 CALM      30.27R
FLAGSTAFF      PTCLDY    50  49  96 CALM      30.42R
PAYSON         CLEAR     68  54  60 CALM      30.28S HAZE
PAGE           PTCLDY    75  55  49 SE7       30.23R
$$

AZZ009>014-017-311400-
NORTHEAST ARIZONA

CITY           SKY/WX    TMP DP  RH WIND       PRES   REMARKS
WINSLOW        PTCLDY    65  57  75 SW5       30.29S
SAINT JOHNS    CLEAR     62  55  77 CALM      30.31F
SHOW LOW       CLEAR     57  50  77 S3        30.37F
$$

AZZ023-311400-
GREATER PHOENIX AREA

CITY           SKY/WX    TMP DP  RH WIND       PRES   REMARKS
PHOENIX        MOCLDY    89  61  38 SW5       29.93R
GLENDALE       MOCLDY    88  63  42 CALM      29.95
LUKE AFB       PTCLDY    86  63  45 W3        29.93R
DEER VALLEY    PTCLDY    86  58  38 NE5       29.95S
SCOTTSDALE     PTCLDY    88  61  40 CALM      29.97S
MESA-FALCON    MOCLDY    86  57  37 N7        29.96
MESA-GATEWAY   MOCLDY    82  59  44 VRB3      29.98R
CHANDLER       MOCLDY    88  59  37 N7        29.95
$$

AZZ027-028-311400-
SOUTHWEST MARICOPA COUNTY AND PINAL COUNTY

CITY           SKY/WX    TMP DP  RH WIND       PRES   REMARKS
CASA GRANDE    MOCLDY    84  61  45 CALM      29.96R
GILA BEND      FAIR      85  64  49 S5        29.92R
$$

AZZ503-504-507>509-311400-
SOUTHEAST ARIZONA

CITY           SKY/WX    TMP DP  RH WIND       PRES   REMARKS
TUCSON         CLOUDY    82  65  56 S5        30.08R
DAVIS-MONTHAN  CLOUDY    80  64  58 E5        30.06R
RYAN FIELD     CLEAR     81  70  69 CALM      30.06
NOGALES        CLOUDY    73  62  68 SW3       30.16R
SIERRA VISTA   CLOUDY    70  61  71 W3        30.24R
DOUGLAS          N/A    N/A N/A N/A MISG      30.22R
SAFFORD        PTCLDY    80  62  54 E16       30.15R
$$

AZZ020-021-025-026-031-311400-
SOUTHWEST ARIZONA

CITY           SKY/WX    TMP DP  RH WIND       PRES   REMARKS
YUMA           PTCLDY    88  67  49 CALM      29.89R
$$

CAZ031-033-041-043-047-048-061-311400-
SOUTHERN CALIFORNIA

CITY           SKY/WX    TMP DP  RH WIND       PRES   REMARKS
DOWNTOWN L.A.  CLOUDY    69  65  86 CALM      30.01R
L.A. AIRPORT   MOCLDY    68  65  90 W3        30.02R
SAN DIEGO      CLOUDY    72  64  76 W5        30.02R
BURBANK        PTCLDY    69  64  84 SE5       30.02R
ONTARIO        PTCLDY    69  63  81 W3        30.02S
RIVERSIDE      CLEAR     70  65  84 W3        30.03R
PALM SPRINGS   CLEAR     86  65  49 NW6       29.91R
EL CENTRO NAS  MOCLDY    84  65  52 W6        29.89R
IMPERIAL       CLEAR     84  67  56 CALM      29.87R
BLYTHE         CLEAR     81  69  67 CALM      29.91R
NEEDLES        CLEAR     80  70  71 W7        29.95R
$$

NVZ020-UTZ003-311400-
SOUTHERN NEVADA-UTAH

CITY           SKY/WX    TMP DP  RH WIND       PRES   REMARKS
LAS VEGAS      MOCLDY    89  53  29 W5        29.98R
SALT LAKE CITY PTCLDY    64  33  31 CALM      30.23R
$$

NMZ009-TXZ055-311400-
NEW MEXICO-WEST TEXAS

CITY           SKY/WX    TMP DP  RH WIND       PRES   REMARKS
ALBUQUERQUE    CLOUDY    68  60  75 N3        30.35S
EL PASO        CLOUDY    73  67  81 NW3       30.21S
$$


........................KEY........................
SKY/WX - SKY CONDITION/WEATHER
TMP    - TEMPERATURE IN FAHRENHEIT
DP     - DEW POINT IN FAHRENHEIT
RH     - RELATIVE HUMIDITY IN PERCENT
WIND   - DIRECTION AND SPEED IN MILES PER HOUR (MPH)
VRB    - VARIABLE WIND DIRECTION
PRES   - MEAN SEA LEVEL PRESSURE IN INCHES OF MERCURY
         F - FALLING PRESSURE   R - RISING PRESSURE
         S - STEADY PRESSURE
VSB    - VISIBILITY IN MILES
HX     - HEAT INDEX IN FAHRENHEIT
WCI    - WIND CHILL INDEX IN FAHRENHEIT
TC     - TEMPERATURE IN CELSIUS WHICH IS ALSO KNOWN AS
         TEMPERATURE IN CENTIGRADE
AFB    - AIR FORCE BASE
         LUKE AFB IS LUKE AIR FORCE BASE
         DAVIS-MONTHAN IS DAVIS-MONTHAN AIR FORCE BASE
NAS    - NAVAL AIR STATION
         EL CENTRO NAS IS EL CENTRO NAVAL AIR STATION
N/A    - NOT AVAILABLE




USA.gov is the U.S. government's official web portal to all federal, state and local government web resources and services.